Weather History for Madison, WI

Change the Weather History Date:

Wednesday, January 18, 2012

  Actual Average Record
Temperature  
Mean Temperature 10 °F 18 °F  
Max Temperature 23 °F 26 °F 54 °F (1996)
Min Temperature -3 °F 11 °F -27 °F (1994)
Degree Days  
Heating Degree Days 55 47  
Month to date heating degree days 675 835  
Since 1 July heating degree days 3079 3714  
Cooling Degree Days 0 0  
Month to date cooling degree days 0 0  
Year to date cooling degree days 0 0  
Moisture  
Dew Point 4 °F    
Average Humidity 72    
Maximum Humidity 87    
Minimum Humidity 56    
Precipitation  
Precipitation 0.00 in 0.03 in 0.80 in (1996)
Month to date precipitation 0.60 0.72  
Year to date precipitation 0.60 0.72  
Snow  
Snow 0.00 in 0.40 in 5.80 in (1936)
Month to date snowfall 8.1 7.5  
Since 1 July snowfall 12.2 25.1  
Snow Depth 4.00 in    
Sea Level Pressure  
Sea Level Pressure 30.09 in    
Wind  
Wind Speed 7 mph (South)    
Max Wind Speed 18 mph    
Max Gust Speed 26 mph    
Visibility 10 miles    
Events      
T = Trace of Precipitation, MM = Missing Value Source: NWS Daily Summary

Daily Weather History Graph

Daily Weather History Graph

Search for Another Location

Airport:

Trip Planner

Search our weather history database for the weather conditions in past years. The results will help you decide how hot, cold, wet, or windy it might be!

Date:

Astronomy

Jan. 18, 2012 Rise Set
Actual Time 7:24 AM CST 4:50 PM CST
Civil Twilight 6:53 AM CST 5:22 PM CST
Nautical Twilight 6:18 AM CST 5:57 PM CST
Astronomical Twilight 5:44 AM CST 6:31 PM CST
Moon 2:55 AM CST (1/18) 12:28 PM CST (1/18)
Length of Visible Light 10h 28m
Length of Day
9h 25m
Waning Crescent, 24% of the Moon is Illuminated
Jan 18
Waning Crescent
Jan 23
New
Jan 30
First Quarter
Feb 7
Full
Feb 14
Last Quarter

Hourly Weather History & Observations

Time (CST) Temp. Windchill Dew Point Humidity Pressure Visibility Wind Dir Wind Speed Gust Speed Precip Events Conditions
12:53 AM 8.1 °F - -0.0 °F 70% 30.29 in 10.0 mi Calm Calm - N/A   Clear
1:53 AM 5.0 °F - -0.9 °F 76% 30.29 in 10.0 mi Calm Calm - N/A   Clear
2:53 AM 3.0 °F - -2.0 °F 80% 30.30 in 10.0 mi Calm Calm - N/A   Clear
3:53 AM 5.0 °F - -0.9 °F 76% 30.29 in 10.0 mi Calm Calm - N/A   Clear
4:53 AM -0.9 °F - -5.1 °F 83% 30.28 in 10.0 mi Calm Calm - N/A   Clear
5:53 AM -0.0 °F - -5.1 °F 79% 30.28 in 10.0 mi Calm Calm - N/A   Clear
6:53 AM -0.9 °F - -5.1 °F 83% 30.28 in 10.0 mi Calm Calm - N/A   Clear
7:53 AM 1.0 °F - -2.9 °F 83% 30.27 in 10.0 mi Calm Calm - N/A   Partly Cloudy
8:53 AM 5.0 °F - 1.0 °F 84% 30.26 in 8.0 mi Calm Calm - N/A   Clear
9:53 AM 10.0 °F -1.9 °F 1.9 °F 70% 30.23 in 10.0 mi South 8.1 mph - N/A   Clear
10:53 AM 12.9 °F -0.2 °F 1.9 °F 62% 30.20 in 10.0 mi South 10.4 mph - N/A   Clear
11:53 AM 15.1 °F -0.1 °F 3.0 °F 59% 30.16 in 10.0 mi South 15.0 mph - N/A   Clear
12:53 PM 16.0 °F 2.3 °F 3.9 °F 59% 30.11 in 10.0 mi South 12.7 mph - N/A   Mostly Cloudy
1:53 PM 17.1 °F 3.0 °F 5.0 °F 59% 30.05 in 10.0 mi South 13.8 mph - N/A   Scattered Clouds
2:53 PM 18.0 °F 3.6 °F 6.1 °F 60% 30.02 in 10.0 mi South 15.0 mph - N/A   Mostly Cloudy
3:53 PM 19.0 °F 4.5 °F 7.0 °F 59% 29.97 in 10.0 mi South 16.1 mph 23.0 mph N/A   Scattered Clouds
4:53 PM 18.0 °F 5.4 °F 9.0 °F 68% 29.94 in 10.0 mi South 11.5 mph - N/A   Partly Cloudy
5:53 PM 18.0 °F 7.7 °F 10.0 °F 71% 29.93 in 10.0 mi South 8.1 mph - N/A   Clear
6:53 PM 19.0 °F 7.5 °F 10.9 °F 71% 29.90 in 10.0 mi South 10.4 mph - N/A   Clear
7:53 PM 19.9 °F 7.3 °F 10.9 °F 68% 29.87 in 10.0 mi SSW 12.7 mph 18.4 mph N/A   Clear
8:53 PM 21.0 °F 8.1 °F 12.9 °F 71% 29.85 in 10.0 mi South 13.8 mph 19.6 mph N/A   Partly Cloudy
9:53 PM 21.0 °F 9.9 °F 12.9 °F 71% 29.82 in 10.0 mi SSW 10.4 mph - N/A   Overcast
10:53 PM 21.9 °F 10.4 °F 12.9 °F 68% 29.80 in 10.0 mi SSW 11.5 mph - N/A   Overcast
11:53 PM 23.0 °F 13.9 °F 14.0 °F 68% 29.77 in 10.0 mi SSW 8.1 mph - N/A   Overcast